Time,TemperatureF,DewpointF,PressureIn,WindDirection,WindDirectionDegrees,WindSpeedMPH,WindSpeedGustMPH,Humidity,HourlyPrecipIn,Conditions,Clouds,dailyrainin,SolarRadiationWatts/m^2,SoftwareType,DateUTC
2013-02-16 00:01:00,23.0,22.0,-100.00,South,189,4.0,8.0,97,0.00,,,0.00,0.000000,,2013-02-16 09:01:00,
2013-02-16 00:11:00,23.0,22.0,-100.00,South,189,4.0,8.0,97,0.00,,,0.00,0.000000,,2013-02-16 09:11:00,
2013-02-16 00:21:00,23.0,22.0,-100.00,South,189,4.0,8.0,97,0.00,,,0.00,0.000000,,2013-02-16 09:21:00,
2013-02-16 00:31:00,23.0,22.0,-100.00,South,189,4.0,8.0,97,0.00,,,0.00,0.000000,,2013-02-16 09:31:00,
2013-02-16 00:52:00,22.0,21.0,-100.00,South,187,6.0,9.0,97,0.00,,,0.00,0.000000,,2013-02-16 09:52:00,
2013-02-16 01:01:00,22.0,21.0,-100.00,South,187,6.0,9.0,97,0.00,,,0.00,0.000000,,2013-02-16 10:01:00,
2013-02-16 01:11:00,22.0,21.0,-100.00,South,187,6.0,9.0,97,0.00,,,0.00,0.000000,,2013-02-16 10:11:00,
2013-02-16 01:21:00,22.0,21.0,-100.00,South,187,6.0,9.0,97,0.00,,,0.00,0.000000,,2013-02-16 10:21:00,
2013-02-16 01:31:00,22.0,21.0,-100.00,South,187,6.0,9.0,97,0.00,,,0.00,0.000000,,2013-02-16 10:31:00,
2013-02-16 01:52:00,22.0,21.0,-100.00,South,190,3.0,6.0,96,0.00,,,0.00,0.000000,,2013-02-16 10:52:00,
2013-02-16 02:02:00,22.0,21.0,-100.00,South,190,3.0,6.0,96,0.00,,,0.00,0.000000,,2013-02-16 11:02:00,
2013-02-16 02:11:00,22.0,21.0,-100.00,South,190,3.0,6.0,96,0.00,,,0.00,0.000000,,2013-02-16 11:11:00,
2013-02-16 02:22:00,22.0,21.0,-100.00,South,190,3.0,6.0,96,0.00,,,0.00,0.000000,,2013-02-16 11:22:00,
2013-02-16 02:31:00,22.0,21.0,-100.00,South,190,3.0,6.0,96,0.00,,,0.00,0.000000,,2013-02-16 11:31:00,
2013-02-16 02:52:00,22.0,21.0,-100.00,SSE,156,3.0,8.0,96,0.00,,,0.00,0.000000,,2013-02-16 11:52:00,
2013-02-16 03:01:00,22.0,21.0,-100.00,SSE,156,3.0,8.0,96,0.00,,,0.00,0.000000,,2013-02-16 12:01:00,
2013-02-16 03:12:00,22.0,21.0,-100.00,SSE,156,3.0,8.0,96,0.00,,,0.00,0.000000,,2013-02-16 12:12:00,
2013-02-16 03:22:00,22.0,21.0,-100.00,SSE,156,3.0,8.0,96,0.00,,,0.00,0.000000,,2013-02-16 12:22:00,
2013-02-16 03:32:00,22.0,21.0,-100.00,SSE,156,3.0,8.0,96,0.00,,,0.00,0.000000,,2013-02-16 12:32:00,
2013-02-16 03:52:00,22.0,21.0,-100.00,SSE,164,3.0,7.0,96,0.00,,,0.00,0.000000,,2013-02-16 12:52:00,
2013-02-16 04:01:00,22.0,21.0,-100.00,SSE,164,3.0,7.0,96,0.00,,,0.00,0.000000,,2013-02-16 13:01:00,
2013-02-16 04:11:00,22.0,21.0,-100.00,SSE,164,3.0,7.0,96,0.00,,,0.00,0.000000,,2013-02-16 13:11:00,
2013-02-16 04:21:00,22.0,21.0,-100.00,SSE,164,3.0,7.0,96,0.00,,,0.00,0.000000,,2013-02-16 13:21:00,
2013-02-16 04:31:00,22.0,21.0,-100.00,SSE,164,3.0,7.0,96,0.00,,,0.00,0.000000,,2013-02-16 13:31:00,
2013-02-16 05:01:00,22.0,21.0,-100.00,SSE,163,4.0,7.0,96,0.00,,,0.00,0.000000,,2013-02-16 14:01:00,
2013-02-16 05:11:00,22.0,21.0,-100.00,SSE,163,4.0,7.0,96,0.00,,,0.00,0.000000,,2013-02-16 14:11:00,
2013-02-16 05:21:00,22.0,21.0,-100.00,SSE,163,4.0,7.0,96,0.00,,,0.00,0.000000,,2013-02-16 14:21:00,
2013-02-16 05:32:00,22.0,21.0,-100.00,SSE,163,4.0,7.0,96,0.00,,,0.00,0.000000,,2013-02-16 14:32:00,
2013-02-16 05:52:00,22.0,21.0,-100.00,South,191,3.0,6.0,96,0.00,,,0.00,0.000000,,2013-02-16 14:52:00,
2013-02-16 06:01:00,22.0,21.0,-100.00,South,191,3.0,6.0,96,0.00,,,0.00,0.000000,,2013-02-16 15:01:00,
2013-02-16 06:11:00,22.0,21.0,-100.00,South,191,3.0,6.0,96,0.00,,,0.00,0.000000,,2013-02-16 15:11:00,
2013-02-16 06:21:00,22.0,21.0,-100.00,South,191,3.0,6.0,96,0.00,,,0.00,0.000000,,2013-02-16 15:21:00,
2013-02-16 06:31:00,22.0,21.0,-100.00,South,191,3.0,6.0,96,0.00,,,0.00,0.000000,,2013-02-16 15:31:00,
2013-02-16 06:52:00,21.0,20.0,-100.00,SSE,168,4.0,10.0,96,0.00,,,0.00,0.000000,,2013-02-16 15:52:00,
2013-02-16 07:01:00,21.0,20.0,-100.00,SSE,168,4.0,10.0,96,0.00,,,0.00,0.000000,,2013-02-16 16:01:00,
2013-02-16 07:11:00,21.0,20.0,-100.00,SSE,168,4.0,10.0,96,0.00,,,0.00,0.000000,,2013-02-16 16:11:00,
2013-02-16 07:21:00,21.0,20.0,-100.00,SSE,168,4.0,10.0,96,0.00,,,0.00,0.000000,,2013-02-16 16:21:00,
2013-02-16 07:32:00,21.0,20.0,-100.00,SSE,168,4.0,10.0,96,0.00,,,0.00,0.000000,,2013-02-16 16:32:00,
2013-02-16 07:52:00,21.0,20.0,-100.00,South,190,12.0,19.0,96,0.00,,,0.00,0.000000,,2013-02-16 16:52:00,
2013-02-16 08:01:00,21.0,20.0,-100.00,South,190,12.0,19.0,96,0.00,,,0.00,0.000000,,2013-02-16 17:01:00,
2013-02-16 08:11:00,21.0,20.0,-100.00,South,190,12.0,19.0,96,0.00,,,0.00,0.000000,,2013-02-16 17:11:00,
2013-02-16 08:21:00,21.0,20.0,-100.00,South,190,12.0,19.0,96,0.00,,,0.00,0.000000,,2013-02-16 17:21:00,
2013-02-16 08:31:00,21.0,20.0,-100.00,South,190,12.0,19.0,96,0.00,,,0.00,0.000000,,2013-02-16 17:31:00,
2013-02-16 08:52:00,20.0,19.0,-100.00,SSW,195,12.0,16.0,96,0.00,,,0.00,1.000000,,2013-02-16 17:52:00,
2013-02-16 09:02:00,20.0,19.0,-100.00,SSW,195,12.0,16.0,96,0.00,,,0.00,1.000000,,2013-02-16 18:02:00,
2013-02-16 09:11:00,20.0,19.0,-100.00,SSW,195,12.0,16.0,96,0.00,,,0.00,1.000000,,2013-02-16 18:11:00,
2013-02-16 09:21:00,20.0,19.0,-100.00,SSW,195,12.0,16.0,96,0.00,,,0.00,1.000000,,2013-02-16 18:21:00,
2013-02-16 09:32:00,20.0,19.0,-100.00,SSW,195,12.0,16.0,96,0.00,,,0.00,1.000000,,2013-02-16 18:32:00,
2013-02-16 09:52:00,20.0,19.0,-100.00,SSW,200,7.0,10.0,96,0.00,,,0.00,11.000000,,2013-02-16 18:52:00,
2013-02-16 10:02:00,20.0,19.0,-100.00,SSW,200,7.0,10.0,96,0.00,,,0.00,11.000000,,2013-02-16 19:02:00,
2013-02-16 10:11:00,20.0,19.0,-100.00,SSW,200,7.0,10.0,96,0.00,,,0.00,11.000000,,2013-02-16 19:11:00,
2013-02-16 10:21:00,20.0,19.0,-100.00,SSW,200,7.0,10.0,96,0.00,,,0.00,11.000000,,2013-02-16 19:21:00,
2013-02-16 10:31:00,20.0,19.0,-100.00,SSW,200,7.0,10.0,96,0.00,,,0.00,11.000000,,2013-02-16 19:31:00,
2013-02-16 10:52:00,19.0,18.0,-100.00,SW,224,6.0,11.0,95,0.00,,,0.00,38.000000,,2013-02-16 19:52:00,
2013-02-16 11:01:00,19.0,18.0,-100.00,SW,224,6.0,11.0,95,0.00,,,0.00,38.000000,,2013-02-16 20:01:00,
2013-02-16 11:11:00,19.0,18.0,-100.00,SW,224,6.0,11.0,95,0.00,,,0.00,38.000000,,2013-02-16 20:11:00,
2013-02-16 11:21:00,19.0,18.0,-100.00,SW,224,6.0,11.0,95,0.00,,,0.00,38.000000,,2013-02-16 20:21:00,
2013-02-16 11:32:00,19.0,18.0,-100.00,SW,224,6.0,11.0,95,0.00,,,0.00,38.000000,,2013-02-16 20:32:00,
2013-02-16 11:52:00,18.0,17.0,-100.00,SW,215,6.0,8.0,95,0.00,,,0.00,101.000000,,2013-02-16 20:52:00,
2013-02-16 12:02:00,18.0,17.0,-100.00,SW,215,6.0,8.0,95,0.00,,,0.00,101.000000,,2013-02-16 21:02:00,
2013-02-16 12:11:00,18.0,17.0,-100.00,SW,215,6.0,8.0,95,0.00,,,0.00,101.000000,,2013-02-16 21:11:00,
2013-02-16 12:21:00,18.0,17.0,-100.00,SW,215,6.0,8.0,95,0.00,,,0.00,101.000000,,2013-02-16 21:21:00,
2013-02-16 12:31:00,18.0,17.0,-100.00,SW,215,6.0,8.0,95,0.00,,,0.00,101.000000,,2013-02-16 21:31:00,
2013-02-16 12:52:00,17.0,16.0,-100.00,NNW,330,5.0,7.0,94,0.00,,,0.00,82.000000,,2013-02-16 21:52:00,
2013-02-16 13:01:00,17.0,16.0,-100.00,NNW,330,5.0,7.0,94,0.00,,,0.00,82.000000,,2013-02-16 22:01:00,
2013-02-16 13:11:00,17.0,16.0,-100.00,NNW,330,5.0,7.0,94,0.00,,,0.00,82.000000,,2013-02-16 22:11:00,
2013-02-16 13:21:00,17.0,16.0,-100.00,NNW,330,5.0,7.0,94,0.00,,,0.00,82.000000,,2013-02-16 22:21:00,
2013-02-16 13:31:00,17.0,16.0,-100.00,NNW,330,5.0,7.0,94,0.00,,,0.00,82.000000,,2013-02-16 22:31:00,
2013-02-16 13:52:00,18.0,17.0,-100.00,NNE,14,2.0,4.0,95,0.00,,,0.00,228.000000,,2013-02-16 22:52:00,
2013-02-16 14:02:00,18.0,17.0,-100.00,NNE,14,2.0,4.0,95,0.00,,,0.00,228.000000,,2013-02-16 23:02:00,
2013-02-16 14:11:00,18.0,17.0,-100.00,NNE,14,2.0,4.0,95,0.00,,,0.00,228.000000,,2013-02-16 23:11:00,
2013-02-16 14:21:00,18.0,17.0,-100.00,NNE,14,2.0,4.0,95,0.00,,,0.00,228.000000,,2013-02-16 23:21:00,
2013-02-16 14:31:00,18.0,17.0,-100.00,NNE,14,2.0,4.0,95,0.00,,,0.00,228.000000,,2013-02-16 23:31:00,
2013-02-16 14:52:00,19.0,18.0,-100.00,NW,323,2.0,4.0,96,0.00,,,0.00,243.000000,,2013-02-16 23:52:00,
2013-02-16 15:02:00,19.0,18.0,-100.00,NW,323,2.0,4.0,96,0.00,,,0.00,243.000000,,2013-02-17 00:02:00,
2013-02-16 15:11:00,19.0,18.0,-100.00,NW,323,2.0,4.0,96,0.00,,,0.00,243.000000,,2013-02-17 00:11:00,
2013-02-16 15:21:00,19.0,18.0,-100.00,NW,323,2.0,4.0,96,0.00,,,0.00,243.000000,,2013-02-17 00:21:00,
2013-02-16 15:31:00,19.0,18.0,-100.00,NW,323,2.0,4.0,96,0.00,,,0.00,243.000000,,2013-02-17 00:31:00,
2013-02-16 15:52:00,17.0,16.0,-100.00,West,279,2.0,5.0,95,0.00,,,0.00,183.000000,,2013-02-17 00:52:00,
2013-02-16 16:01:00,17.0,16.0,-100.00,West,279,2.0,5.0,95,0.00,,,0.00,183.000000,,2013-02-17 01:01:00,
2013-02-16 16:11:00,17.0,16.0,-100.00,West,279,2.0,5.0,95,0.00,,,0.00,183.000000,,2013-02-17 01:11:00,
2013-02-16 16:21:00,17.0,16.0,-100.00,West,279,2.0,5.0,95,0.00,,,0.00,183.000000,,2013-02-17 01:21:00,
2013-02-16 16:31:00,17.0,16.0,-100.00,West,279,2.0,5.0,95,0.00,,,0.00,183.000000,,2013-02-17 01:31:00,
2013-02-16 16:52:00,17.0,15.0,-100.00,NW,314,3.0,5.0,92,0.00,,,0.00,47.000000,,2013-02-17 01:52:00,
2013-02-16 17:01:00,17.0,15.0,-100.00,NW,314,3.0,5.0,92,0.00,,,0.00,47.000000,,2013-02-17 02:01:00,
2013-02-16 17:11:00,17.0,15.0,-100.00,NW,314,3.0,5.0,92,0.00,,,0.00,47.000000,,2013-02-17 02:11:00,
2013-02-16 17:21:00,17.0,15.0,-100.00,NW,314,3.0,5.0,92,0.00,,,0.00,47.000000,,2013-02-17 02:21:00,
2013-02-16 17:31:00,17.0,15.0,-100.00,NW,314,3.0,5.0,92,0.00,,,0.00,47.000000,,2013-02-17 02:31:00,
2013-02-16 17:52:00,16.0,14.0,-100.00,NW,323,3.0,6.0,92,0.00,,,0.00,9.000000,,2013-02-17 02:52:00,
2013-02-16 18:01:00,16.0,14.0,-100.00,NW,323,3.0,6.0,92,0.00,,,0.00,9.000000,,2013-02-17 03:01:00,
2013-02-16 18:11:00,16.0,14.0,-100.00,NW,323,3.0,6.0,92,0.00,,,0.00,9.000000,,2013-02-17 03:11:00,
2013-02-16 18:21:00,16.0,14.0,-100.00,NW,323,3.0,6.0,92,0.00,,,0.00,9.000000,,2013-02-17 03:21:00,
2013-02-16 18:31:00,16.0,14.0,-100.00,NW,323,3.0,6.0,92,0.00,,,0.00,9.000000,,2013-02-17 03:31:00,
2013-02-16 18:52:00,15.0,13.0,-100.00,NW,315,4.0,6.0,92,0.00,,,0.00,0.000000,,2013-02-17 03:52:00,
2013-02-16 19:01:00,15.0,13.0,-100.00,NW,315,4.0,6.0,92,0.00,,,0.00,0.000000,,2013-02-17 04:01:00,
2013-02-16 19:11:00,15.0,13.0,-100.00,NW,315,4.0,6.0,92,0.00,,,0.00,0.000000,,2013-02-17 04:11:00,
2013-02-16 19:21:00,15.0,13.0,-100.00,NW,315,4.0,6.0,92,0.00,,,0.00,0.000000,,2013-02-17 04:21:00,
2013-02-16 19:31:00,15.0,13.0,-100.00,NW,315,4.0,6.0,92,0.00,,,0.00,0.000000,,2013-02-17 04:31:00,
2013-02-16 19:52:00,16.0,14.0,-100.00,NNW,327,4.0,7.0,93,0.00,,,0.00,0.000000,,2013-02-17 04:52:00,
2013-02-16 20:01:00,16.0,14.0,-100.00,NNW,327,4.0,7.0,93,0.00,,,0.00,0.000000,,2013-02-17 05:01:00,
2013-02-16 20:11:00,16.0,14.0,-100.00,NNW,327,4.0,7.0,93,0.00,,,0.00,0.000000,,2013-02-17 05:11:00,
2013-02-16 20:22:00,16.0,14.0,-100.00,NNW,327,4.0,7.0,93,0.00,,,0.00,0.000000,,2013-02-17 05:22:00,
2013-02-16 20:32:00,16.0,14.0,-100.00,NNW,327,4.0,7.0,93,0.00,,,0.00,0.000000,,2013-02-17 05:32:00,
2013-02-16 20:52:00,15.0,13.0,-100.00,NNE,13,5.0,7.0,91,0.00,,,0.00,0.000000,,2013-02-17 05:52:00,
2013-02-16 21:02:00,15.0,13.0,-100.00,NNE,13,5.0,7.0,91,0.00,,,0.00,0.000000,,2013-02-17 06:02:00,
2013-02-16 21:11:00,15.0,13.0,-100.00,NNE,13,5.0,7.0,91,0.00,,,0.00,0.000000,,2013-02-17 06:11:00,
2013-02-16 21:21:00,15.0,13.0,-100.00,NNE,13,5.0,7.0,91,0.00,,,0.00,0.000000,,2013-02-17 06:21:00,
2013-02-16 21:31:00,15.0,13.0,-100.00,NNE,13,5.0,7.0,91,0.00,,,0.00,0.000000,,2013-02-17 06:31:00,
2013-02-16 21:52:00,15.0,13.0,-100.00,North,353,3.0,8.0,91,0.00,,,0.00,0.000000,,2013-02-17 06:52:00,
2013-02-16 22:01:00,15.0,13.0,-100.00,North,353,3.0,8.0,91,0.00,,,0.00,0.000000,,2013-02-17 07:01:00,
2013-02-16 22:11:00,15.0,13.0,-100.00,North,353,3.0,8.0,91,0.00,,,0.00,0.000000,,2013-02-17 07:11:00,
2013-02-16 22:21:00,15.0,13.0,-100.00,North,353,3.0,8.0,91,0.00,,,0.00,0.000000,,2013-02-17 07:21:00,
2013-02-16 22:31:00,15.0,13.0,-100.00,North,353,3.0,8.0,91,0.00,,,0.00,0.000000,,2013-02-17 07:31:00,
2013-02-16 22:52:00,16.0,14.0,-100.00,NW,310,5.0,7.0,92,0.00,,,0.00,0.000000,,2013-02-17 07:52:00,
2013-02-16 23:01:00,16.0,14.0,-100.00,NW,310,5.0,7.0,92,0.00,,,0.00,0.000000,,2013-02-17 08:01:00,
2013-02-16 23:31:00,16.0,14.0,-100.00,NW,310,5.0,7.0,92,0.00,,,0.00,0.000000,,2013-02-17 08:31:00,
2013-02-16 23:52:00,17.0,15.0,-100.00,NW,310,5.0,8.0,91,0.00,,,0.00,0.000000,,2013-02-17 08:52:00,